Details From CYPX - Puvirnituq
To CYTS - Timmins
Flight Number -
Tags Generated
Created
Modified
Stats Distance 704 nm / 1,304 km
Max Altitude 0 ft / 0 m
Waypoints 3
Social Downloads 1
Likes 0
Share VATSIM

Download

Looking for another format? Having issues loading an existing format? Contact us
Advertisement - Login to hide

Notes

Generated

Route

CYPX LORNE CYTS

ID Type Via Altitude Latitude Longitude Leg Dist Tot Dist Heading (true) Name
O CYPX APT - 0 ft / 0 m 60.04389˚ -77.28306˚ - 0 nm - -
LORNE FIX - 0 ft / 0 m 48.67333˚ -81.40500˚ 697 nm 697 nm 194° / 190° -
O CYTS APT - 0 ft / 0 m 48.56972˚ -81.38666˚ 6 nm 703 nm 173° / 173° -

Altitude Profile

Advertisement - Login to hide

Weather


0- 5 10 15 20 25 30 35+ Temperature / ° C

Clouds and Precipitation
Forecast for 2018-05-21 18:00 UTC. Updated 2 hours ago

Ground ~20,000 ft ~40,000 ft Winds

CYPX

Details ICAO CYPX (YPX)
Name PUVIRNITUQ
Region Canada
Timezone America/Montreal (UTC-4.0)
Stats Elevation 74 ft / 23 m (AMSL)
Location 60.050418° -77.286945°
Runways 1
Magnetic Variation 19.838° W

METAR

CYPX 211923Z AUTO 28017KT 3SM -SN SCT009 OVC017 M04/M06 A2991 RMK SLP131

Decode

TAF

TAF AMD CYPX 211830Z 2118/2206 28012KT 6SM -SN SCT009 OVC020 TEMPO 2118/2203 1SM -SN BKN009 OVC020 FM220300 30012KT P6SM SCT015 OVC025 TEMPO 2203/2206 3SM -SN BKN015 OVC025 RMK FCST BASED ON AUTO OBS. NXT FCST BY 220000Z

Decode

Departure Runways

ID Width Length Bearing (true) Bearing (mag) Surface Threshold Offset Overrun Length
01 100 ft / 30 m 4,971 ft / 1,515 m 343.44° 3.28° Gravel 0 ft / 0 m 0 ft / 0 m
19 100 ft / 30 m 4,971 ft / 1,515 m 163.44° 183.28° Gravel 0 ft / 0 m 0 ft / 0 m

CYTS

Details ICAO CYTS (YTS)
Name TIMMINS
Region Canada
Timezone America/Toronto (UTC-4.0)
Stats Elevation 967 ft / 295 m (AMSL)
Location 48.570140° -81.375487°
Runways 2
Magnetic Variation 10.479° W

METAR

CYTS 211900Z 28010KT 210V310 15SM FEW076 FEW200 25/04 A3006 RMK CU2CI1 CI TR SLP185 DENSITY ALT 2200FT

Decode

TAF

TAF CYTS 211938Z 2120/2208 28008KT P6SM SKC BECMG 2122/2124 VRB03KT RMK NXT FCST BY 220200Z

Decode

Destination Runways

ID Width Length Bearing (true) Bearing (mag) Surface Threshold Offset Overrun Length
03 150 ft / 46 m 5,974 ft / 1,821 m 21.05° 31.53° Asphalt 0 ft / 0 m 0 ft / 0 m
10 150 ft / 46 m 4,897 ft / 1,493 m 91.19° 101.67° Asphalt 0 ft / 0 m 0 ft / 0 m
21 150 ft / 46 m 5,974 ft / 1,821 m 201.06° 211.54° Asphalt 0 ft / 0 m 0 ft / 0 m
28 150 ft / 46 m 4,897 ft / 1,493 m 271.20° 281.68° Asphalt 0 ft / 0 m 0 ft / 0 m

Approach Navaids

Runway Type Ident Frequency Range Bearing (true) Bearing (mag) Slope Elevation
03 Localiser ITS 109.70 MHz 18 nm / 33 km 21.13° 31.61° - 967 ft / 295 m (AMSL)
03 Glidescope ITS 109.70 MHz 10 nm / 19 km 21.06° 31.54° 3.00° 967 ft / 295 m (AMSL)